This demonstration page uses our WeatherBlox Daily Observations layout. Learn more.

Left ArrowRight Arrow

38.89511, -77.03637

Hourly Observations for December 6, 2021

Temp ( °F °C ) Dew Point ( °F °C ) Humidity (%) Winds ( mph kmh ) Pressure ( in mb ) Visibility ( mi km ) Precip ( " mm )
12:52 am 00:52 Cloudy 47 8.3 36 2.2 66 66 N N/A 30.12 1020 10 16 N/A
1:52 am 01:52 Cloudy 47 8.3 35 1.7 63 63 N N/A 30.09 1019 10 16 N/A
2:52 am 02:52 Partly Cloudy 46 7.8 36 2.2 68 68 SSE 5 7 30.05 1018 10 16 N/A
3:52 am 03:52 Partly Cloudy 45 7.2 36 2.2 71 71 S 7 11 30.02 1017 10 16 N/A
4:52 am 04:52 Partly Cloudy 46 7.8 38 3.3 73 73 S 9 15 30.01 1016 10 16 N/A
5:39 am 05:39 Mostly Cloudy 47 8.3 38 3.3 71 71 S 10 17 29.99 1016 10 16 N/A
5:52 am 05:52 Cloudy 47 8.3 39 3.9 74 74 S 10 17 29.98 1015 10 16 N/A
6:52 am 06:52 Cloudy 47 8.3 40 4.4 77 77 S 14 22 29.95 1014 10 16 N/A
6:57 am 06:57 Mostly Cloudy 47 8.3 40 4.4 77 77 S 14 22 29.95 1014 10 16 N/A
7:52 am 07:52 Mostly Cloudy 50 10 42 5.6 74 74 S 12 19 29.93 1014 10 16 N/A
8:14 am 08:14 Mostly Cloudy 50 10 42 5.6 74 74 SSW 14 22 29.93 1014 10 16 N/A
8:52 am 08:52 Cloudy 51 10.6 43 6.1 74 74 S 14 22 29.91 1013 10 16 N/A
9:16 am 09:16 Mostly Cloudy 52 11.1 44 6.7 75 75 S 16 26 29.90 1013 10 16 N/A
9:52 am 09:52 Cloudy 54 12.2 46 7.8 75 75 S 14 22 29.89 1012 10 16 N/A
10:52 am 10:52 Mostly Cloudy 59 15 50 10 72 72 SSW 17 28 29.85 1011 10 16 N/A
11:52 am 11:52 Mostly Cloudy 59 15 49 9.4 69 69 S 15 24 29.79 1009 10 16 N/A
12:52 pm 12:52 Mostly Cloudy 67 19.4 51 10.6 57 57 SSW 18 30 29.74 1007 10 16 N/A
1:52 pm 13:52 Cloudy 68 20 50 10 53 53 S 21 33 29.71 1006 10 16 N/A
2:52 pm 14:52 Cloudy 68 20 51 10.6 55 55 SSW 15 24 29.70 1006 10 16 N/A
3:52 pm 15:52 Partly Cloudy 67 19.4 51 10.6 57 57 SSW 14 22 29.68 1005 10 16 N/A
4:52 pm 16:52 Cloudy 68 20 51 10.6 55 55 S 13 20 29.68 1005 10 16 N/A
5:52 pm 17:52 Cloudy 67 19.4 51 10.6 57 57 SSW 12 19 29.70 1006 10 16 N/A
6:52 pm 18:52 Cloudy 70 21.1 47 8.3 44 44 W 23 37 29.72 1007 10 16 N/A
7:06 pm 19:06 Cloudy 63 17.2 44 6.7 50 50 NW 30 48 29.77 1008 10 16 N/A
7:52 pm 19:52 Cloudy 56 13.3 32 undefined 40 40 WNW 23 37 29.83 1010 10 16 N/A
8:52 pm 20:52 Cloudy 53 11.7 20 -6.7 27 27 NW 30 48 29.90 1012 10 16 N/A
9:52 pm 21:52 Cloudy 49 9.4 15 -9.4 26 26 NW 23 37 29.96 1015 10 16 N/A
10:52 pm 22:52 Mostly Cloudy 47 8.3 14 -10 26 26 WNW 20 31 30.01 1016 10 16 N/A
11:52 pm 23:52 Partly Cloudy 44 6.7 16 -8.9 32 32 NNW 21 33 30.06 1018 10 16 N/A

Powered by AerisWeather